GPS BIIR-8 (PRN 16)

Last updated on Sat Nov 01 2025 00:03:15 GMT+0000 (Coordinated Universal Time)

1 27663U 03005A 25304.50589486 -.00000006 00000+0 00000+0 0 9996 2 27663 54.9357 224.0575 0145572 51.2074 125.8648 2.00573147166722
UTC large
Height (km)
Speed (km/s)
/
Latitude / Longitude
Inclination (degrees)
Orbital Period (minutes)
Azimuth
Elevation
Range (km)
Doppler Factor

Next 0 passes for location: London (51.5072 / 0.1276)

Sorry there are no passes over London.